Weather History for KDUX - April, 2013

Change the Weather History Date:

Tuesday, April 9, 2013

  Actual Average (KBGD) Record (KBGD)
Temperature  
Mean Temperature 43 °F 57 °F  
Max Temperature 64 °F 71 °F 92 °F (2011)
Min Temperature 22 °F 43 °F 20 °F (1973)
Degree Days  
Heating Degree Days 22 9  
Month to date heating degree days 89  
Since 1 July heating degree days 3566  
Cooling Degree Days 0 1  
Month to date cooling degree days 6  
Year to date cooling degree days 13  
Moisture  
Dew Point 21 °F    
Average Humidity 51    
Maximum Humidity 70    
Minimum Humidity 21    
Precipitation  
Precipitation 0.00 in 0.05 in 0.53 in (1958)
Month to date precipitation 0.50  
Year to date precipitation 3.12  
Snow  
Snow 0.00 in - T in (2008)
Month to date snowfall  
Since 1 July snowfall  
Snow Depth -    
Sea Level Pressure  
Sea Level Pressure 29.74 in    
Wind  
Wind Speed 24 mph (North)    
Max Wind Speed 39 mph    
Max Gust Speed 50 mph    
Visibility 8 miles    
Events      
T = Trace of Precipitation, MM = Missing Value Source: NWS Daily Summary

Daily Weather History Graph

Daily Weather History Graph

Search for Another Location

Airport or City:

Trip Planner

Search our weather history database for the weather conditions in past years. The results will help you decide how hot, cold, wet, or windy it might be!

Date:

Astronomy

Apr. 09, 2013 Rise Set
Actual Time 7:22 AM CDT 8:16 PM CDT
Civil Twilight 6:56 AM CDT 8:42 PM CDT
Nautical Twilight 6:25 AM CDT 9:13 PM CDT
Astronomical Twilight 5:54 AM CDT 9:45 PM CDT
Moon 6:45 AM CDT (4/9) 7:54 PM CDT (4/9)
Length of Visible Light 13h 46m
Length of Day
12h 53m
Waning Crescent, 1% of the Moon is Illuminated
Apr 9
Waning Crescent
Apr 10
New
Apr 18
First Quarter
Apr 25
Full
May 2
Last Quarter

Hourly Weather History & Observations

Time (CDT) Temp. Windchill Dew Point Humidity Pressure Visibility Wind Dir Wind Speed Gust Speed Precip Events Conditions
12:15 AM 62.2 °F - 23.9 °F 23% 29.47 in 10.0 mi South 11.5 mph - N/A   Clear
12:35 AM 64.2 °F - 23.7 °F 21% 29.47 in 10.0 mi South 15.0 mph - N/A   Clear
12:55 AM 64.6 °F - 23.5 °F 21% 29.47 in 10.0 mi South 13.8 mph - N/A   Clear
1:15 AM 63.0 °F - 24.3 °F 23% 29.47 in 10.0 mi SSE 13.8 mph - N/A   Clear
1:35 AM 62.1 °F - 26.1 °F 25% 29.48 in 10.0 mi SE 17.3 mph - N/A   Clear
1:55 AM 62.6 °F - 26.2 °F 25% 29.49 in 10.0 mi SSE 18.4 mph - N/A   Clear
2:15 AM 63.3 °F - 30.6 °F 29% 29.49 in 10.0 mi SSE 17.3 mph - N/A   Clear
2:35 AM 64.0 °F - 32.0 °F 30% 29.50 in 10.0 mi South 17.3 mph 23.0 mph N/A   Clear
2:55 AM 63.1 °F - 32.0 °F 31% 29.49 in 10.0 mi South 16.1 mph - N/A   Clear
3:15 AM 63.3 °F - 33.4 °F 33% 29.49 in 10.0 mi SSE 15.0 mph 23.0 mph N/A   Clear
3:35 AM 61.5 °F - 34.0 °F 36% 29.49 in 10.0 mi SSE 13.8 mph - N/A   Clear
3:55 AM 62.2 °F - 36.1 °F 38% 29.48 in 10.0 mi SSE 18.4 mph 25.3 mph N/A   Clear
4:15 AM 61.0 °F - 37.4 °F 42% 29.49 in 10.0 mi South 18.4 mph 21.9 mph N/A   Clear
4:35 AM 61.2 °F - 40.1 °F 46% 29.48 in 10.0 mi South 17.3 mph - N/A   Clear
4:55 AM 60.8 °F - 40.5 °F 47% 29.48 in 10.0 mi South 19.6 mph 24.2 mph N/A   Clear
5:15 AM 62.1 °F - 42.3 °F 48% 29.48 in 10.0 mi South 19.6 mph - N/A   Clear
5:35 AM 61.9 °F - 43.9 °F 52% 29.49 in 10.0 mi South 19.6 mph 25.3 mph N/A   Clear
5:55 AM 61.7 °F - 45.1 °F 55% 29.50 in 10.0 mi South 17.3 mph 24.2 mph N/A   Clear
6:15 AM 47.7 °F - 32.7 °F 56% 29.58 in 3.0 mi NNW 31.1 mph 39.1 mph N/A   Haze
6:35 AM 44.1 °F 34.4 °F 31.8 °F 62% 29.59 in 3.0 mi North 27.6 mph 38.0 mph N/A   Haze
6:55 AM 42.3 °F 31.0 °F 31.3 °F 65% 29.60 in 3.0 mi North 33.4 mph 41.4 mph N/A   Haze
7:15 AM 41.0 °F 30.0 °F 32.0 °F 70% 29.63 in 4.0 mi North 28.8 mph 36.8 mph N/A   Haze
7:35 AM 40.1 °F 28.2 °F 30.7 °F 69% 29.64 in 4.0 mi North 32.2 mph 39.1 mph N/A   Haze
7:55 AM 39.0 °F 26.4 °F 29.1 °F 68% 29.66 in 4.0 mi North 34.5 mph 42.6 mph N/A   Haze
8:15 AM 36.0 °F 22.2 °F 25.7 °F 66% 29.68 in 3.0 mi North 34.5 mph 43.7 mph N/A   Haze
8:35 AM 34.9 °F 20.3 °F 24.6 °F 66% 29.70 in 4.0 mi North 36.8 mph 46.0 mph N/A   Haze
8:55 AM 34.7 °F 21.1 °F 24.1 °F 65% 29.71 in 4.0 mi North 31.1 mph 40.3 mph N/A   Haze
9:15 AM 34.9 °F 20.5 °F 23.4 °F 63% 29.71 in 4.0 mi North 35.7 mph 46.0 mph N/A   Haze
9:35 AM 34.0 °F 20.3 °F 23.2 °F 65% 29.73 in 4.0 mi North 29.9 mph 43.7 mph N/A   Haze
9:55 AM 33.3 °F 18.5 °F 22.6 °F 65% 29.74 in 4.0 mi North 34.5 mph 43.7 mph N/A   Haze
10:15 AM 32.0 °F 16.5 °F 21.2 °F 64% 29.76 in 4.0 mi North 35.7 mph 47.2 mph N/A   Haze
10:35 AM 31.8 °F 15.9 °F 20.7 °F 63% 29.77 in 5.0 mi North 38.0 mph 46.0 mph N/A   Haze
10:55 AM 30.7 °F 15.7 °F 19.6 °F 63% 29.77 in 5.0 mi North 31.1 mph 43.7 mph N/A   Haze
11:15 AM 30.4 °F 14.3 °F 18.3 °F 61% 29.77 in 4.0 mi North 35.7 mph 47.2 mph N/A   Haze
11:35 AM 30.6 °F 14.6 °F 18.1 °F 60% 29.81 in 5.0 mi North 35.7 mph 44.9 mph N/A   Haze
11:55 AM 30.7 °F 15.7 °F 18.1 °F 60% 29.81 in 5.0 mi North 31.1 mph 43.7 mph N/A   Haze
12:15 PM 30.6 °F 14.6 °F 18.0 °F 60% 29.82 in 5.0 mi North 35.7 mph 43.7 mph N/A   Haze
12:35 PM 30.4 °F 14.7 °F 17.6 °F 59% 29.83 in 5.0 mi North 33.4 mph 42.6 mph N/A   Haze
12:55 PM 30.0 °F 14.2 °F 16.7 °F 58% 29.83 in 4.0 mi North 33.4 mph 46.0 mph N/A   Haze
1:15 PM 30.0 °F 14.0 °F 16.5 °F 57% 29.82 in 5.0 mi North 34.5 mph 46.0 mph N/A   Haze
1:35 PM 30.4 °F 15.0 °F 17.1 °F 58% 29.82 in 7.0 mi North 32.2 mph 41.4 mph N/A   Overcast
1:55 PM 31.1 °F 15.5 °F 17.1 °F 56% 29.81 in 7.0 mi North 34.5 mph 43.7 mph N/A   Overcast
2:15 PM 29.7 °F 13.3 °F 16.7 °F 59% 29.83 in 7.0 mi North 35.7 mph 43.7 mph N/A   Overcast
2:35 PM 30.0 °F 14.5 °F 17.4 °F 59% 29.85 in 7.0 mi North 32.2 mph 41.4 mph N/A   Overcast
2:55 PM 30.4 °F 15.7 °F 18.0 °F 60% 29.84 in 10.0 mi North 28.8 mph 40.3 mph N/A   Mostly Cloudy
3:15 PM 31.8 °F 17.2 °F 18.1 °F 57% 29.86 in 10.0 mi North 31.1 mph 38.0 mph N/A   Mostly Cloudy
3:35 PM 31.1 °F 15.7 °F 17.4 °F 57% 29.87 in 10.0 mi NNW 33.4 mph 41.4 mph N/A   Overcast
3:55 PM 32.0 °F 16.7 °F 16.7 °F 53% 29.87 in 10.0 mi North 34.5 mph 43.7 mph N/A   Mostly Cloudy
4:15 PM 33.4 °F 19.4 °F 16.9 °F 51% 29.87 in 10.0 mi North 31.1 mph 39.1 mph N/A   Overcast
4:35 PM 33.6 °F 19.4 °F 15.8 °F 48% 29.89 in 10.0 mi North 32.2 mph 42.6 mph N/A   Mostly Cloudy
4:55 PM 34.9 °F 21.3 °F 15.8 °F 46% 29.88 in 10.0 mi North 31.1 mph 39.1 mph N/A   Mostly Cloudy
5:15 PM 32.2 °F 18.1 °F 14.7 °F 49% 29.88 in 10.0 mi North 28.8 mph 39.1 mph N/A   Mostly Cloudy
5:35 PM 32.0 °F 18.1 °F 14.2 °F 48% 29.86 in 10.0 mi North 27.6 mph 42.6 mph N/A   Scattered Clouds
5:55 PM 31.8 °F 17.6 °F 14.2 °F 48% 29.86 in 10.0 mi North 28.8 mph 40.3 mph N/A   Scattered Clouds
6:15 PM 30.4 °F 15.4 °F 13.3 °F 49% 29.84 in 10.0 mi North 29.9 mph 43.7 mph N/A   Mostly Cloudy
6:35 PM 29.8 °F 13.4 °F 13.1 °F 50% 29.89 in 10.0 mi North 36.8 mph 42.6 mph N/A   Overcast
6:55 PM 28.4 °F 11.6 °F 13.3 °F 53% 29.91 in 7.0 mi North 35.7 mph 47.2 mph N/A   Overcast
7:15 PM 27.7 °F 10.6 °F 13.3 °F 55% 29.90 in 10.0 mi North 35.7 mph 43.7 mph N/A   Overcast
7:35 PM 27.3 °F 14.4 °F 13.1 °F 55% 29.94 in 10.0 mi NNW 18.4 mph 40.3 mph N/A   Overcast
7:55 PM 27.5 °F 10.8 °F 11.1 °F 50% 29.90 in 10.0 mi North 33.4 mph 42.6 mph N/A   Overcast
8:15 PM 27.0 °F 10.3 °F 10.0 °F 49% 29.90 in 10.0 mi North 32.2 mph 42.6 mph N/A   Overcast
8:35 PM 26.4 °F 9.5 °F 10.0 °F 50% 29.91 in 10.0 mi North 32.2 mph 44.9 mph N/A   Overcast
8:55 PM 26.4 °F 9.1 °F 9.9 °F 50% 29.95 in 10.0 mi North 34.5 mph 40.3 mph N/A   Overcast
9:15 PM 25.7 °F 8.1 °F 9.9 °F 51% 29.92 in 10.0 mi North 34.5 mph 46.0 mph N/A   Mostly Cloudy
9:55 PM 24.8 °F 6.0 °F 9.0 °F 51% 29.96 in 10.0 mi NNW 39.1 mph 49.5 mph N/A   Scattered Clouds
10:15 PM 24.4 °F 5.9 °F 8.6 °F 51% 29.96 in 10.0 mi North 36.8 mph 46.0 mph N/A   Clear
10:35 PM 23.9 °F 5.4 °F 8.6 °F 52% 29.99 in 10.0 mi North 35.7 mph 42.6 mph N/A   Scattered Clouds
10:55 PM 23.7 °F 6.1 °F 8.2 °F 52% 30.00 in 10.0 mi North 31.1 mph 44.9 mph N/A   Scattered Clouds
11:15 PM 23.2 °F 5.4 °F 7.9 °F 52% 30.01 in 10.0 mi North 31.1 mph 43.7 mph N/A   Clear
11:35 PM 22.8 °F 3.7 °F 7.7 °F 52% 30.00 in 10.0 mi North 36.8 mph 41.4 mph N/A   Clear
11:55 PM 22.8 °F 4.6 °F 8.2 °F 54% 30.05 in 10.0 mi NNW 32.2 mph 36.8 mph N/A   Clear